Location: Bletchingley
(51.2333°N, 0.1000°W)
Time: 13:51:56
(UTC+00:00)

USA 229 DEB - Pass Details

Date: 18 September 2020
Orbit: 971 x 1241 km, 63.4° (Epoch: 14 October)

Event Time Altitude Azimuth Distance (km) Brightness Sun altitude
Rises 18:40:22 0° 243° (WSW) 3,713 7.5 -6.0°
Reaches altitude 10° 18:42:57 10° 247° (WSW) 2,792 6.9 -6.4°
Maximum altitude 18:49:24 56° 325° (NW) 1,247 4.4 -7.4°
Drops below altitude 10° 18:56:19 10° 43° (NE) 2,981 5.7 -8.5°
Sets 18:59:10 0° 48° (NE) 3,983 6.4 -8.9°
